Location: ????????
(41.2031°N, 22.5756°E)
Time: 05:27:32
(UTC+00:00)

Cosmos 1689 Rocket - Pass Details

Date: 01 December 2020
Orbit: 356 x 370 km, 97.5° (Epoch: 20 January)

Event Time Altitude Azimuth Distance (km) Brightness Sun altitude
Rises 04:48:39 0° 206° (SSW) 2,171 5.8 -8.9°
Reaches altitude 10° 04:51:23 10° 238° (WSW) 1,336 4.5 -8.4°
Enters shadow 04:53:30 12° 283° (WNW) 1,246 4.0 -8.1°
Exits shadow 05:18:24 -48° 6° (N) 10,045 9.1 -3.8°
